| time (UTC) | temp F | wind direction | speed MPH | gust MPH | rain 1hr in | rain 24hr in | rain mn in | humidity % | barometer mb |
| 20260510203017 | 71 | 0 | 3.0 | 11.0 | 0.00 | 0.08 | 0.01 | 60 | 1013.5 |
| 20260510200017 | 75 | 270 | 3.0 | 12.0 | 0.00 | 0.08 | 0.01 | 55 | 1013.5 |
| 20260510193017 | 76 | 0 | 4.0 | 14.0 | 0.00 | 0.09 | 0.01 | 51 | 1013.4 |
| 20260510190017 | 77 | 0 | 4.0 | 16.0 | 0.00 | 0.09 | 0.01 | 53 | 1013.6 |
| 20260510183037 | 76 | 270 | 3.0 | 14.0 | 0.00 | 0.09 | 0.01 | 57 | 1013.6 |
| 20260510180017 | 75 | 0 | 3.0 | 11.0 | 0.00 | 0.09 | 0.01 | 57 | 1013.6 |
| 20260510173017 | 74 | 45 | 3.0 | 8.0 | 0.00 | 0.09 | 0.01 | 58 | 1013.5 |
| 20260510170017 | 74 | 248 | 2.0 | 7.0 | 0.00 | 0.09 | 0.01 | 62 | 1013.3 |
| 20260510163017 | 71 | 270 | 1.0 | 4.0 | 0.00 | 0.09 | 0.01 | 71 | 1013.5 |
| 20260510160016 | 67 | 293 | 1.0 | 5.0 | 0.00 | 0.09 | 0.01 | 77 | 1013.6 |
| 20260510153016 | 65 | 0.0 | 3.0 | 0.00 | 0.09 | 0.01 | 80 | 1014.1 | |
| 20260510150016 | 61 | 180 | 1.0 | 4.0 | 0.00 | 0.09 | 0.01 | 85 | 1014.3 |
| 20260510143017 | 58 | 0.0 | 0.0 | 0.00 | 0.09 | 0.01 | 91 | 1014.3 | |
| 20260510140016 | 56 | 0.0 | 1.0 | 0.00 | 0.09 | 0.01 | 95 | 1014.1 | |
| 20260510133016 | 54 | 0.0 | 3.0 | 0.00 | 0.09 | 0.01 | 94 | 1014.1 | |
| 20260510130016 | 53 | 0.0 | 2.0 | 0.00 | 0.09 | 0.01 | 94 | 1014.4 | |
| 20260510123016 | 53 | 23 | 1.0 | 5.0 | 0.00 | 0.09 | 0.01 | 94 | 1013.7 |
| 20260510120016 | 52 | 0.0 | 0.0 | 0.00 | 0.09 | 0.01 | 94 | 1013.4 | |
| 20260510113017 | 51 | 0.0 | 0.0 | 0.00 | 0.09 | 0.01 | 94 | 1013.4 | |
| 20260510110016 | 51 | 0.0 | 0.0 | 0.00 | 0.09 | 0.01 | 94 | 1013.2 | |
| 20260510103015 | 51 | 0.0 | 0.0 | 0.00 | 0.09 | 0.01 | 94 | 1012.6 | |
| 20260510100157 | 51 | 0.0 | 0.0 | 0.01 | 0.09 | 0.01 | 93 | 1012.5 | |
| 20260510093016 | 51 | 0.0 | 0.0 | 0.01 | 0.09 | 0.01 | 93 | 1012.4 | |
| 20260510090016 | 52 | 45 | 1.0 | 6.0 | 0.00 | 0.08 | 0.00 | 93 | 1012.6 |
| 20260510083035 | 51 | 23 | 2.0 | 9.0 | 0.00 | 0.08 | 0.00 | 93 | 1012.8 |
| 20260510080016 | 51 | 0.0 | 2.0 | 0.00 | 0.08 | 0.00 | 92 | 1012.0 | |
| 20260510073016 | 51 | 23 | 1.0 | 3.0 | 0.00 | 0.08 | 0.00 | 92 | 1011.9 |
| 20260510070016 | 51 | 0 | 2.0 | 5.0 | 0.00 | 0.08 | 0.00 | 92 | 1011.8 |
| 20260510063016 | 51 | 0.0 | 3.0 | 0.00 | 0.08 | 0.00 | 92 | 1011.8 | |
| 20260510060017 | 50 | 0.0 | 0.0 | 0.00 | 0.08 | 0.00 | 92 | 1011.7 | |
| 20260510053017 | 50 | 0.0 | 0.0 | 0.00 | 0.08 | 0.00 | 92 | 1011.9 | |
| 20260510050017 | 49 | 0.0 | 0.0 | 0.00 | 0.08 | 0.00 | 91 | 1012.1 | |
| 20260510043017 | 49 | 0.0 | 1.0 | 0.00 | 0.08 | 0.00 | 91 | 1012.1 | |
| 20260510040017 | 49 | 0.0 | 1.0 | 0.00 | 0.08 | 0.08 | 91 | 1012.1 | |
| 20260510033016 | 48 | 0.0 | 0.0 | 0.00 | 0.08 | 0.08 | 90 | 1011.8 | |
| 20260510030036 | 49 | 0.0 | 0.0 | 0.00 | 0.08 | 0.08 | 89 | 1011.8 | |
| 20260510023016 | 49 | 0.0 | 0.0 | 0.00 | 0.08 | 0.08 | 89 | 1011.6 | |
| 20260510020016 | 51 | 0.0 | 0.0 | 0.00 | 0.08 | 0.08 | 89 | 1011.8 | |
| 20260510013016 | 51 | 0.0 | 0.0 | 0.00 | 0.08 | 0.08 | 88 | 1011.8 | |
| 20260510010016 | 53 | 0.0 | 0.0 | 0.00 | 0.08 | 0.08 | 88 | 1011.5 | |
| 20260510003016 | 54 | 0.0 | 0.0 | 0.00 | 0.08 | 0.08 | 88 | 1011.0 | |
| 20260510000017 | 55 | 0.0 | 0.0 | 0.00 | 0.08 | 0.08 | 87 | 1010.9 | |
| 20260509233017 | 56 | 180 | 1.0 | 2.0 | 0.00 | 0.08 | 0.08 | 87 | 1010.9 |
| 20260509230034 | 56 | 180 | 1.0 | 4.0 | 0.00 | 0.08 | 0.08 | 86 | 1010.8 |
| 20260509223017 | 56 | 0.0 | 4.0 | 0.00 | 0.08 | 0.08 | 87 | 1011.1 | |
| 20260509220017 | 55 | 203 | 1.0 | 3.0 | 0.02 | 0.08 | 0.08 | 88 | 1011.2 |
| 20260509213017 | 55 | 0 | 1.0 | 3.0 | 0.07 | 0.08 | 0.08 | 87 | 1011.3 |
| 20260509210017 | 56 | 0.0 | 3.0 | 0.05 | 0.06 | 0.06 | 86 | 1011.2 |